date,time,SUV Intensity [MED/Hr],UV Index,Daily total [MED],Since Last [MED]
11/08/2023,08:30:52,0.605,1.0,0.65,0.65
11/08/2023,08:36:02,0.631,1.0,0.714,0.064
11/08/2023,08:38:43,0.608,1.0,0.743,0.029
11/08/2023,09:05:53,0.640,1.0,1.093,0.35
11/08/2023,09:41:44,1.587,4.0,1.872,0.779
11/08/2023,09:47:08,0.714,2.0,1.955,0.083
11/08/2023,09:49:18,0.792,2.0,1.981,0.026
11/08/2023,09:53:20,0.911,2.0,2.032,0.051
11/08/2023,10:01:04,1.135,3.0,2.24,0.208
11/08/2023,10:01:36,1.151,3.0,2.252,0.012
11/08/2023,10:02:09,1.620,4.0,2.265,0.013
11/08/2023,10:05:00,1.704,4.0,2.329,0.064
11/08/2023,10:05:59,1.579,4.0,2.353,0.024
11/08/2023,10:06:59,1.821,4.0,2.383,0.03
11/08/2023,10:07:59,1.793,4.0,2.414,0.031
11/08/2023,10:09:00,1.523,4.0,2.441,0.027
11/08/2023,10:10:00,1.096,3.0,2.46,0.019
11/08/2023,10:11:00,1.041,2.0,2.478,0.018
11/08/2023,10:11:59,1.059,2.0,2.495,0.017
11/08/2023,10:12:59,1.762,4.0,2.517,0.022
11/08/2023,10:14:00,1.669,4.0,2.544,0.027
11/08/2023,10:14:59,0.934,2.0,2.562,0.018
11/08/2023,10:15:59,0.924,2.0,2.578,0.016
11/08/2023,10:16:59,0.784,2.0,2.592,0.014
11/08/2023,10:17:59,0.854,2.0,2.606,0.014
11/08/2023,10:18:59,1.730,4.0,2.623,0.017
11/08/2023,10:19:59,1.333,3.0,2.65,0.027
11/08/2023,10:20:59,1.891,4.0,2.674,0.024
11/08/2023,10:21:59,1.874,4.0,2.706,0.032
11/08/2023,10:23:00,1.950,4.0,2.738,0.032
11/08/2023,10:24:04,1.977,5.0,2.772,0.034
11/08/2023,10:25:00,1.951,4.0,2.803,0.031
11/08/2023,10:25:59,1.959,5.0,2.834,0.031
11/08/2023,10:27:00,1.984,5.0,2.868,0.034
11/08/2023,10:27:59,1.985,5.0,2.901,0.033
11/08/2023,10:28:59,1.921,4.0,2.934,0.033
11/08/2023,10:29:59,1.805,4.0,2.964,0.03
11/08/2023,10:31:00,1.739,4.0,2.994,0.03
11/08/2023,10:31:59,1.753,4.0,3.022,0.028
11/08/2023,10:32:59,1.036,2.0,3.044,0.022
11/08/2023,10:33:59,1.174,3.0,3.064,0.02
11/08/2023,10:35:00,1.084,2.0,3.084,0.02
11/08/2023,10:36:00,0.868,2.0,3.1,0.016
11/08/2023,10:36:59,0.822,2.0,3.113,0.013
11/08/2023,10:37:59,0.827,2.0,3.127,0.014
11/08/2023,10:38:59,0.815,2.0,3.141,0.014
11/08/2023,10:39:59,0.743,2.0,3.154,0.013
11/08/2023,10:41:00,0.665,2.0,3.166,0.012
11/08/2023,10:41:59,0.651,2.0,3.177,0.011
11/08/2023,10:42:59,0.684,2.0,3.188,0.011
11/08/2023,10:44:00,0.702,2.0,3.2,0.012
11/08/2023,10:44:59,0.736,2.0,3.211,0.011
11/08/2023,10:45:59,0.801,2.0,3.224,0.013
11/08/2023,10:46:59,0.919,2.0,3.239,0.015
11/08/2023,10:47:59,0.958,2.0,3.254,0.015
11/08/2023,10:49:00,0.950,2.0,3.27,0.016
11/08/2023,10:49:59,0.951,2.0,3.286,0.016
11/08/2023,10:50:59,0.981,2.0,3.303,0.017
11/08/2023,10:52:00,0.965,2.0,3.319,0.016
11/08/2023,10:52:59,1.013,2.0,3.335,0.016
11/08/2023,10:54:00,1.052,2.0,3.353,0.018
11/08/2023,10:54:59,1.097,3.0,3.371,0.018
11/08/2023,10:55:59,1.737,4.0,3.393,0.022
11/08/2023,10:56:58,1.173,3.0,3.413,0.02
11/08/2023,10:57:58,1.074,2.0,3.432,0.019
11/08/2023,10:58:59,1.001,2.0,3.45,0.018
11/08/2023,11:00:00,0.936,2.0,3.466,0.016
11/08/2023,11:00:59,0.979,2.0,3.482,0.016
11/08/2023,11:01:59,1.188,3.0,3.501,0.019
11/08/2023,11:03:00,1.366,3.0,3.525,0.024
11/08/2023,11:03:59,1.360,3.0,3.546,0.021
11/08/2023,11:04:59,2.079,5.0,3.577,0.031
11/08/2023,11:05:59,1.564,4.0,3.611,0.034
11/08/2023,11:07:00,2.041,5.0,3.643,0.032
11/08/2023,11:07:59,2.048,5.0,3.676,0.033
11/08/2023,11:08:59,2.160,5.0,3.711,0.035
11/08/2023,11:09:59,2.079,5.0,3.745,0.034
11/08/2023,11:11:00,2.207,5.0,3.782,0.037
11/08/2023,11:12:00,1.398,3.0,3.806,0.024
11/08/2023,11:12:59,2.251,5.0,3.83,0.024
11/08/2023,11:13:59,2.211,5.0,3.867,0.037
11/08/2023,11:14:58,2.229,5.0,3.902,0.035
11/08/2023,11:15:58,1.290,3.0,3.932,0.03
11/08/2023,11:16:59,1.256,3.0,3.953,0.021
11/08/2023,11:17:59,1.212,3.0,3.976,0.023
11/08/2023,11:18:59,2.060,5.0,3.998,0.022
11/08/2023,11:19:59,2.255,5.0,4.033,0.035
11/08/2023,11:20:59,2.274,5.0,4.073,0.04
11/08/2023,11:21:59,2.290,5.0,4.109,0.036
11/08/2023,11:22:59,2.329,5.0,4.148,0.039
11/08/2023,11:23:57,1.422,3.0,4.181,0.033
11/08/2023,11:24:57,1.543,4.0,4.211,0.03
11/08/2023,11:25:59,2.115,5.0,4.247,0.036
11/08/2023,11:26:59,2.078,5.0,4.281,0.034
11/08/2023,11:28:00,2.201,5.0,4.317,0.036
11/08/2023,11:28:59,2.197,5.0,4.354,0.037
11/08/2023,11:29:59,2.166,5.0,4.39,0.036
11/08/2023,11:31:00,2.131,5.0,4.426,0.036
11/08/2023,11:31:59,2.017,5.0,4.461,0.035
11/08/2023,11:33:00,2.014,5.0,4.494,0.033
11/08/2023,11:34:00,1.159,3.0,4.52,0.026
11/08/2023,11:34:59,1.030,2.0,4.538,0.018
11/08/2023,11:35:58,0.970,2.0,4.554,0.016
11/08/2023,11:36:57,0.959,2.0,4.569,0.015
11/08/2023,11:37:59,0.989,2.0,4.586,0.017
11/08/2023,11:39:00,1.842,4.0,4.605,0.019
11/08/2023,11:39:59,1.826,4.0,4.634,0.029
11/08/2023,11:40:59,1.978,5.0,4.666,0.032
11/08/2023,11:41:57,1.841,4.0,4.698,0.032
11/08/2023,11:42:58,1.880,4.0,4.729,0.031
11/08/2023,11:44:00,1.835,4.0,4.762,0.033
11/08/2023,11:44:59,2.109,5.0,4.793,0.031
11/08/2023,11:46:00,2.017,5.0,4.824,0.031
11/08/2023,11:46:59,1.727,4.0,4.852,0.028
11/08/2023,11:47:59,1.926,4.0,4.884,0.032
11/08/2023,11:49:00,2.151,5.0,4.917,0.033
11/08/2023,11:49:59,1.748,4.0,4.949,0.032
11/08/2023,11:50:59,1.979,5.0,4.98,0.031
11/08/2023,11:51:59,1.967,5.0,5.014,0.034
11/08/2023,11:53:00,1.865,4.0,5.046,0.032
11/08/2023,11:53:59,2.259,5.0,5.08,0.034
11/08/2023,11:54:59,2.147,5.0,5.116,0.036
11/08/2023,11:56:00,2.083,5.0,5.153,0.037
11/08/2023,11:56:59,2.092,5.0,5.187,0.034
11/08/2023,11:57:59,2.132,5.0,5.222,0.035
11/08/2023,11:59:00,2.147,5.0,5.256,0.034
11/08/2023,11:59:59,1.398,3.0,5.289,0.033
11/08/2023,12:00:59,1.677,4.0,5.318,0.029
11/08/2023,12:01:57,2.240,5.0,5.353,0.035
11/08/2023,12:02:58,2.187,5.0,5.39,0.037
11/08/2023,12:04:00,2.290,5.0,5.428,0.038
11/08/2023,12:04:59,2.294,5.0,5.466,0.038
11/08/2023,12:05:59,1.319,3.0,5.501,0.035
11/08/2023,12:06:59,2.226,5.0,5.535,0.034
11/08/2023,12:07:59,2.276,5.0,5.573,0.038
11/08/2023,12:08:59,2.335,5.0,5.61,0.037
11/08/2023,12:10:00,2.322,5.0,5.65,0.04
11/08/2023,12:10:59,2.319,5.0,5.689,0.039
11/08/2023,12:11:59,2.344,5.0,5.726,0.037
11/08/2023,12:12:59,2.293,5.0,5.766,0.04
11/08/2023,12:13:59,2.218,5.0,5.802,0.036
11/08/2023,12:14:59,2.201,5.0,5.839,0.037
11/08/2023,12:15:59,1.367,3.0,5.874,0.035
11/08/2023,12:17:00,1.269,3.0,5.895,0.021
11/08/2023,12:17:59,1.243,3.0,5.923,0.028
11/08/2023,12:19:02,1.290,3.0,5.945,0.022
11/08/2023,12:20:00,1.690,4.0,5.967,0.022
11/08/2023,12:20:59,2.301,5.0,5.997,0.03
11/08/2023,12:21:59,2.285,5.0,6.036,0.039
11/08/2023,12:22:59,2.285,5.0,6.073,0.037
11/08/2023,12:23:59,2.251,5.0,6.112,0.039
11/08/2023,12:25:00,2.243,5.0,6.149,0.037
11/08/2023,12:25:59,2.251,5.0,6.186,0.037
11/08/2023,12:26:59,1.658,4.0,6.216,0.03
11/08/2023,12:27:59,1.417,3.0,6.247,0.031
11/08/2023,12:28:59,1.709,4.0,6.279,0.032
11/08/2023,12:29:59,2.166,5.0,6.314,0.035
11/08/2023,12:31:00,1.459,3.0,6.345,0.031
11/08/2023,12:32:00,2.261,5.0,6.378,0.033
11/08/2023,12:33:00,1.506,3.0,6.411,0.033
11/08/2023,12:33:57,1.314,3.0,6.439,0.028
11/08/2023,12:34:57,2.091,5.0,6.467,0.028
11/08/2023,12:36:00,2.199,5.0,6.502,0.035
11/08/2023,12:36:59,2.005,5.0,6.537,0.035
11/08/2023,12:37:59,1.649,4.0,6.569,0.032
11/08/2023,12:38:59,2.003,5.0,6.601,0.032
11/08/2023,12:40:00,1.419,3.0,6.634,0.033
11/08/2023,12:40:57,2.233,5.0,6.666,0.032
11/08/2023,12:41:57,2.262,5.0,6.702,0.036
11/08/2023,12:43:21,2.224,5.0,6.756,0.054
11/08/2023,12:43:59,2.227,5.0,6.778,0.022
11/08/2023,12:44:59,1.775,4.0,6.814,0.036
11/08/2023,12:45:59,1.116,3.0,6.835,0.021
11/08/2023,12:46:59,1.097,3.0,6.854,0.019
11/08/2023,12:47:59,1.173,3.0,6.873,0.019
11/08/2023,12:48:59,1.237,3.0,6.901,0.028
11/08/2023,12:50:00,1.293,3.0,6.922,0.021
11/08/2023,12:50:59,1.833,4.0,6.953,0.031
11/08/2023,12:51:59,1.133,3.0,6.976,0.023
11/08/2023,12:53:00,1.116,3.0,6.994,0.018
11/08/2023,12:53:59,2.118,5.0,7.021,0.027
11/08/2023,12:55:00,2.152,5.0,7.052,0.031
11/08/2023,12:55:59,1.327,3.0,7.082,0.03
11/08/2023,12:56:59,1.703,4.0,7.111,0.029
11/08/2023,12:58:00,1.915,4.0,7.139,0.028
11/08/2023,12:58:59,1.590,4.0,7.172,0.033
11/08/2023,12:59:59,1.456,3.0,7.198,0.026
11/08/2023,13:01:00,1.142,3.0,7.22,0.022
11/08/2023,13:01:59,1.169,3.0,7.239,0.019
11/08/2023,13:02:59,1.420,3.0,7.26,0.021
11/08/2023,13:04:00,2.003,5.0,7.291,0.031
11/08/2023,13:04:59,2.034,5.0,7.32,0.029
11/08/2023,13:05:59,2.086,5.0,7.354,0.034
11/08/2023,13:07:00,1.214,3.0,7.381,0.027
11/08/2023,13:08:00,1.277,3.0,7.402,0.021
11/08/2023,13:09:00,2.050,5.0,7.434,0.032
11/08/2023,13:09:59,2.066,5.0,7.465,0.031
11/08/2023,13:10:59,1.844,4.0,7.496,0.031
11/08/2023,13:12:00,2.082,5.0,7.53,0.034
11/08/2023,13:12:59,2.094,5.0,7.564,0.034
11/08/2023,13:13:59,2.118,5.0,7.598,0.034
11/08/2023,13:15:00,2.086,5.0,7.632,0.034
11/08/2023,13:15:59,1.982,5.0,7.665,0.033
11/08/2023,13:17:00,1.988,5.0,7.699,0.034
11/08/2023,13:17:59,1.721,4.0,7.73,0.031
11/08/2023,13:19:00,1.760,4.0,7.76,0.03
11/08/2023,13:20:00,1.946,4.0,7.79,0.03
11/08/2023,13:21:00,2.090,5.0,7.824,0.034
11/08/2023,13:22:00,1.992,5.0,7.858,0.034
11/08/2023,13:22:59,2.013,5.0,7.891,0.033
11/08/2023,13:23:57,2.084,5.0,7.924,0.033
11/08/2023,13:24:57,2.102,5.0,7.959,0.035
11/08/2023,13:26:00,1.968,5.0,7.994,0.035
11/08/2023,13:27:00,1.928,4.0,8.027,0.033
11/08/2023,13:27:59,1.958,5.0,8.059,0.032
11/08/2023,13:29:00,1.998,5.0,8.091,0.032
11/08/2023,13:29:59,1.958,5.0,8.124,0.033
11/08/2023,13:30:59,1.798,4.0,8.156,0.032
11/08/2023,13:31:59,1.766,4.0,8.186,0.03
11/08/2023,13:33:00,1.774,4.0,8.216,0.03
11/08/2023,13:34:00,1.810,4.0,8.247,0.031
11/08/2023,13:34:59,1.811,4.0,8.276,0.029
11/08/2023,13:36:01,1.717,4.0,8.302,0.026
11/08/2023,13:36:59,1.878,4.0,8.333,0.031
11/08/2023,13:38:00,1.647,4.0,8.36,0.027
11/08/2023,13:38:59,1.855,4.0,8.391,0.031
11/08/2023,13:39:58,1.864,4.0,8.422,0.031
11/08/2023,13:40:58,1.931,4.0,8.454,0.032
11/08/2023,13:41:59,1.950,4.0,8.487,0.033
11/08/2023,13:42:59,1.580,4.0,8.516,0.029
11/08/2023,13:43:59,1.946,4.0,8.547,0.031
11/08/2023,13:45:00,1.130,3.0,8.569,0.022
11/08/2023,13:45:59,1.199,3.0,8.589,0.02
11/08/2023,13:46:59,1.115,3.0,8.61,0.021
11/08/2023,13:47:59,1.084,2.0,8.628,0.018
11/08/2023,13:48:59,1.683,4.0,8.65,0.022
11/08/2023,13:49:59,1.419,3.0,8.671,0.021
11/08/2023,13:50:59,1.483,3.0,8.695,0.024
11/08/2023,13:52:00,0.999,2.0,8.716,0.021
11/08/2023,13:52:59,0.974,2.0,8.733,0.017
11/08/2023,13:54:00,1.014,2.0,8.749,0.016
11/08/2023,13:54:59,1.142,3.0,8.768,0.019
11/08/2023,13:55:59,1.341,3.0,8.79,0.022
11/08/2023,13:56:59,1.356,3.0,8.815,0.025
11/08/2023,13:57:59,1.079,2.0,8.834,0.019
11/08/2023,13:59:00,1.552,4.0,8.856,0.022
11/08/2023,14:00:00,1.831,4.0,8.883,0.027
11/08/2023,14:01:00,1.877,4.0,8.914,0.031
11/08/2023,14:01:59,1.864,4.0,8.941,0.027
11/08/2023,14:03:28,1.718,4.0,8.985,0.044
11/08/2023,14:05:00,1.703,4.0,9.029,0.044
11/08/2023,14:05:59,1.778,4.0,9.058,0.029
11/08/2023,14:06:59,1.641,4.0,9.086,0.028
11/08/2023,14:08:00,1.313,3.0,9.112,0.026
11/08/2023,14:09:00,1.262,3.0,9.132,0.02
11/08/2023,14:10:00,1.698,4.0,9.159,0.027
11/08/2023,14:10:59,1.597,4.0,9.187,0.028
11/08/2023,14:12:00,1.386,3.0,9.212,0.025
11/08/2023,14:12:59,0.945,2.0,9.231,0.019
11/08/2023,14:13:59,0.876,2.0,9.246,0.015
11/08/2023,14:15:00,0.996,2.0,9.261,0.015
11/08/2023,14:16:00,0.875,2.0,9.276,0.015
11/08/2023,14:17:00,0.812,2.0,9.29,0.014
11/08/2023,14:18:00,0.905,2.0,9.304,0.014
11/08/2023,14:18:59,1.259,3.0,9.321,0.017
11/08/2023,14:19:59,1.132,3.0,9.34,0.019
11/08/2023,14:21:00,1.310,3.0,9.362,0.022
11/08/2023,14:22:00,1.019,2.0,9.381,0.019
11/08/2023,14:22:59,0.970,2.0,9.402,0.021
11/08/2023,14:23:59,0.910,2.0,9.418,0.016
11/08/2023,14:25:00,0.867,2.0,9.433,0.015
11/08/2023,14:25:57,0.839,2.0,9.446,0.013
11/08/2023,14:27:00,0.823,2.0,9.461,0.015
11/08/2023,14:27:59,1.268,3.0,9.475,0.014
11/08/2023,14:29:00,0.823,2.0,9.49,0.015
11/08/2023,14:30:00,0.923,2.0,9.505,0.015
11/08/2023,14:30:59,1.468,3.0,9.526,0.021
11/08/2023,14:31:59,1.501,3.0,9.549,0.023
11/08/2023,14:33:00,1.461,3.0,9.57,0.021
11/08/2023,14:33:59,0.934,2.0,9.588,0.018
11/08/2023,14:35:00,0.915,2.0,9.604,0.016
11/08/2023,14:35:59,1.336,3.0,9.621,0.017
11/08/2023,14:36:59,1.039,2.0,9.639,0.018
11/08/2023,14:38:00,1.452,3.0,9.664,0.025
11/08/2023,14:39:00,0.916,2.0,9.681,0.017
11/08/2023,14:40:00,0.856,2.0,9.695,0.014
11/08/2023,14:41:00,0.834,2.0,9.709,0.014
11/08/2023,14:41:59,0.825,2.0,9.723,0.014
11/08/2023,14:42:59,1.347,3.0,9.739,0.016
11/08/2023,14:44:00,0.844,2.0,9.758,0.019
11/08/2023,14:45:00,0.791,2.0,9.772,0.014
11/08/2023,14:46:00,0.753,2.0,9.785,0.013
11/08/2023,14:47:00,0.726,2.0,9.797,0.012
11/08/2023,14:48:00,0.705,2.0,9.809,0.012
11/08/2023,14:49:00,0.695,2.0,9.821,0.012
11/08/2023,14:50:00,0.740,2.0,9.833,0.012
11/08/2023,14:51:00,1.009,2.0,9.846,0.013
11/08/2023,14:51:59,1.277,3.0,9.866,0.02
11/08/2023,14:53:00,1.298,3.0,9.888,0.022
11/08/2023,14:53:59,0.845,2.0,9.907,0.019
11/08/2023,14:55:00,0.810,2.0,9.92,0.013
11/08/2023,14:56:00,0.841,2.0,9.934,0.014
11/08/2023,14:56:59,0.757,2.0,9.947,0.013
11/08/2023,14:58:00,0.741,2.0,9.959,0.012
11/08/2023,14:58:59,0.728,2.0,9.972,0.013
11/08/2023,15:00:01,0.704,2.0,9.984,0.012
11/08/2023,15:01:00,0.703,2.0,9.995,0.011
11/08/2023,15:02:00,0.755,2.0,10.008,0.013
11/08/2023,15:03:00,0.747,2.0,10.021,0.013
11/08/2023,15:04:00,0.851,2.0,10.034,0.013
11/08/2023,15:04:59,1.144,3.0,10.051,0.017
11/08/2023,15:05:58,0.778,2.0,10.068,0.017
11/08/2023,15:06:58,0.833,2.0,10.081,0.013
11/08/2023,15:07:59,0.786,2.0,10.098,0.017
11/08/2023,15:08:59,0.769,2.0,10.111,0.013
11/08/2023,15:10:00,0.765,2.0,10.125,0.014
11/08/2023,15:11:00,0.729,2.0,10.137,0.012
11/08/2023,15:12:00,0.711,2.0,10.149,0.012
11/08/2023,15:12:59,0.700,2.0,10.161,0.012
11/08/2023,15:14:00,0.700,2.0,10.173,0.012
11/08/2023,15:14:59,0.702,2.0,10.184,0.011
11/08/2023,15:15:59,0.908,2.0,10.199,0.015
11/08/2023,15:16:59,0.822,2.0,10.214,0.015
11/08/2023,15:17:58,0.654,2.0,10.225,0.011
11/08/2023,15:19:00,0.619,1.0,10.236,0.011
11/08/2023,15:20:00,0.605,1.0,10.247,0.011
11/08/2023,15:21:00,0.579,1.0,10.256,0.009
11/08/2023,15:21:59,0.540,1.0,10.266,0.01
11/08/2023,15:22:59,0.526,1.0,10.275,0.009
11/08/2023,15:24:00,0.534,1.0,10.283,0.008
11/08/2023,15:24:59,0.509,1.0,10.292,0.009
11/08/2023,15:26:00,0.508,1.0,10.301,0.009
11/08/2023,15:27:00,0.460,1.0,10.308,0.007
11/08/2023,15:27:59,0.502,1.0,10.316,0.008
11/08/2023,15:28:57,0.492,1.0,10.325,0.009
11/08/2023,15:29:58,0.490,1.0,10.333,0.008
11/08/2023,15:31:00,0.477,1.0,10.341,0.008
11/08/2023,15:31:59,0.465,1.0,10.349,0.008
11/08/2023,15:33:00,0.467,1.0,10.357,0.008
11/08/2023,15:33:59,0.507,1.0,10.365,0.008
11/08/2023,15:34:59,0.519,1.0,10.373,0.008
11/08/2023,15:36:00,0.561,1.0,10.382,0.009
11/08/2023,15:37:00,0.530,1.0,10.391,0.009
11/08/2023,15:37:59,0.521,1.0,10.4,0.009
11/08/2023,15:39:00,0.505,1.0,10.408,0.008
11/08/2023,15:39:59,0.503,1.0,10.416,0.008
11/08/2023,15:41:00,0.489,1.0,10.425,0.009
11/08/2023,15:41:59,0.473,1.0,10.433,0.008
11/08/2023,15:43:00,0.455,1.0,10.441,0.008
11/08/2023,15:43:59,0.438,1.0,10.448,0.007
11/08/2023,15:44:59,0.429,1.0,10.455,0.007
11/08/2023,15:46:00,0.434,1.0,10.462,0.007
11/08/2023,15:46:59,0.516,1.0,10.47,0.008
11/08/2023,15:48:00,0.576,1.0,10.479,0.009
11/08/2023,15:48:59,0.612,1.0,10.489,0.01
11/08/2023,15:50:00,0.651,1.0,10.5,0.011
11/08/2023,15:51:00,0.681,2.0,10.511,0.011
11/08/2023,15:51:59,0.753,2.0,10.523,0.012
11/08/2023,15:53:00,0.785,2.0,10.536,0.013
11/08/2023,15:53:59,0.779,2.0,10.549,0.013
11/08/2023,15:55:00,0.764,2.0,10.561,0.012
11/08/2023,15:56:00,0.616,1.0,10.571,0.01
11/08/2023,15:56:59,0.677,2.0,10.581,0.01
11/08/2023,15:58:00,0.728,2.0,10.593,0.012
11/08/2023,15:59:00,0.712,2.0,10.606,0.013
11/08/2023,15:59:59,0.697,2.0,10.617,0.011
11/08/2023,16:01:00,0.656,2.0,10.629,0.012
11/08/2023,16:02:00,0.649,1.0,10.639,0.01
11/08/2023,16:03:00,0.611,1.0,10.65,0.011
11/08/2023,16:04:00,0.608,1.0,10.66,0.01
11/08/2023,16:04:59,0.576,1.0,10.67,0.01
11/08/2023,16:05:59,0.597,1.0,10.68,0.01
11/08/2023,16:07:00,0.510,1.0,10.689,0.009
11/08/2023,16:08:00,0.475,1.0,10.697,0.008
11/08/2023,16:08:59,0.446,1.0,10.705,0.008
11/08/2023,16:09:59,0.447,1.0,10.713,0.008
11/08/2023,16:10:58,0.419,1.0,10.72,0.007
11/08/2023,16:11:58,0.493,1.0,10.727,0.007
11/08/2023,16:13:00,0.478,1.0,10.735,0.008
11/08/2023,16:13:59,0.446,1.0,10.743,0.008
11/08/2023,16:14:59,0.441,1.0,10.75,0.007
11/08/2023,16:15:59,0.445,1.0,10.757,0.007
11/08/2023,16:16:57,0.470,1.0,10.765,0.008
11/08/2023,16:17:58,0.506,1.0,10.773,0.008
11/08/2023,16:19:00,0.513,1.0,10.782,0.009
11/08/2023,16:19:59,0.509,1.0,10.79,0.008
11/08/2023,16:21:00,0.515,1.0,10.799,0.009
11/08/2023,16:22:00,0.511,1.0,10.807,0.008
11/08/2023,16:22:59,0.512,1.0,10.816,0.009
11/08/2023,16:24:00,0.501,1.0,10.824,0.008
11/08/2023,16:24:58,0.488,1.0,10.832,0.008
11/08/2023,16:25:57,0.485,1.0,10.84,0.008
11/08/2023,16:27:00,0.431,1.0,10.848,0.008
11/08/2023,16:28:00,0.445,1.0,10.855,0.007
11/08/2023,16:29:00,0.376,1.0,10.862,0.007
11/08/2023,16:30:00,0.415,1.0,10.869,0.007
11/08/2023,16:30:59,0.426,1.0,10.876,0.007
11/08/2023,16:32:00,0.361,1.0,10.883,0.007
11/08/2023,16:33:00,0.350,1.0,10.889,0.006
11/08/2023,16:33:59,0.357,1.0,10.895,0.006
11/08/2023,16:35:00,0.406,1.0,10.901,0.006
11/08/2023,16:36:00,0.405,1.0,10.908,0.007
11/08/2023,16:36:59,0.335,1.0,10.914,0.006
11/08/2023,16:37:59,0.362,1.0,10.919,0.005
11/08/2023,16:38:58,0.318,1.0,10.925,0.006
11/08/2023,16:39:58,0.323,1.0,10.93,0.005
11/08/2023,16:41:00,0.334,1.0,10.936,0.006
11/08/2023,16:42:00,0.336,1.0,10.941,0.005
11/08/2023,16:42:59,0.331,1.0,10.947,0.006
11/08/2023,16:44:00,0.323,1.0,10.952,0.005
11/08/2023,16:44:59,0.316,1.0,10.958,0.006
11/08/2023,16:46:00,0.314,1.0,10.963,0.005
11/08/2023,16:47:00,0.312,1.0,10.968,0.005
11/08/2023,16:47:59,0.307,1.0,10.973,0.005
11/08/2023,16:49:00,0.299,1.0,10.978,0.005
11/08/2023,16:50:00,0.291,1.0,10.983,0.005
11/08/2023,16:50:59,0.279,1.0,10.988,0.005
11/08/2023,16:51:58,0.269,1.0,10.993,0.005
11/08/2023,16:52:58,0.256,1.0,10.997,0.004
11/08/2023,16:54:00,0.243,1.0,11.001,0.004
11/08/2023,16:55:00,0.228,1.0,11.005,0.004
11/08/2023,16:56:00,0.215,0.0,11.009,0.004
11/08/2023,16:57:00,0.206,0.0,11.012,0.003
11/08/2023,16:58:00,0.203,0.0,11.016,0.004
11/08/2023,16:58:59,0.202,0.0,11.019,0.003
11/08/2023,16:59:59,0.205,0.0,11.022,0.003
11/08/2023,17:01:00,0.204,0.0,11.026,0.004
11/08/2023,17:02:00,0.198,0.0,11.029,0.003
11/08/2023,17:03:00,0.193,0.0,11.032,0.003
11/08/2023,17:04:00,0.188,0.0,11.036,0.004
11/08/2023,17:05:00,0.188,0.0,11.039,0.003
11/08/2023,17:06:00,0.190,0.0,11.042,0.003
11/08/2023,17:06:58,0.190,0.0,11.045,0.003
11/08/2023,17:07:58,0.188,0.0,11.048,0.003
11/08/2023,17:09:00,0.187,0.0,11.051,0.003
11/08/2023,17:09:59,0.180,0.0,11.054,0.003
11/08/2023,17:11:00,0.174,0.0,11.057,0.003
11/08/2023,17:12:00,0.169,0.0,11.06,0.003
11/08/2023,17:12:59,0.164,0.0,11.063,0.003
11/08/2023,17:14:02,0.148,0.0,11.066,0.003
11/08/2023,17:15:00,0.138,0.0,11.068,0.002
11/08/2023,17:16:00,0.130,0.0,11.07,0.002
11/08/2023,17:17:00,0.122,0.0,11.072,0.002
11/08/2023,17:18:00,0.114,0.0,11.074,0.002
11/08/2023,17:19:00,0.105,0.0,11.076,0.002
11/08/2023,17:20:00,0.103,0.0,11.078,0.002
11/08/2023,17:21:00,0.105,0.0,11.079,0.001
11/08/2023,17:21:59,0.110,0.0,11.081,0.002
11/08/2023,17:23:00,0.113,0.0,11.083,0.002
11/08/2023,17:24:00,0.114,0.0,11.085,0.002
11/08/2023,17:25:00,0.112,0.0,11.087,0.002
11/08/2023,17:26:00,0.106,0.0,11.089,0.002
11/08/2023,17:27:00,0.101,0.0,11.09,0.001
11/08/2023,17:28:00,0.095,0.0,11.092,0.002
11/08/2023,17:29:00,0.091,0.0,11.094,0.002
11/08/2023,17:30:00,0.090,0.0,11.095,0.001
11/08/2023,17:31:00,0.093,0.0,11.097,0.002
11/08/2023,17:32:00,0.093,0.0,11.098,0.001
11/08/2023,17:32:59,0.093,0.0,11.1,0.002
11/08/2023,17:34:00,0.088,0.0,11.101,0.001
11/08/2023,17:34:59,0.082,0.0,11.103,0.002
11/08/2023,17:35:59,0.076,0.0,11.104,0.001
11/08/2023,17:37:00,0.073,0.0,11.105,0.001
11/08/2023,17:38:00,0.070,0.0,11.106,0.001
11/08/2023,17:39:00,0.067,0.0,11.108,0.002
11/08/2023,17:40:00,0.065,0.0,11.109,0.001
11/08/2023,17:40:59,0.064,0.0,11.11,0.001
11/08/2023,17:42:00,0.064,0.0,11.111,0.001
11/08/2023,17:42:59,0.067,0.0,11.112,0.001
11/08/2023,17:44:00,0.073,0.0,11.113,0.001
11/08/2023,17:45:00,0.080,0.0,11.114,0.001
11/08/2023,17:46:00,0.088,0.0,11.116,0.002
11/08/2023,17:47:00,0.093,0.0,11.117,0.001
11/08/2023,17:48:00,0.101,0.0,11.119,0.002
11/08/2023,17:49:00,0.099,0.0,11.12,0.001
11/08/2023,17:49:59,0.101,0.0,11.122,0.002
11/08/2023,17:51:00,0.102,0.0,11.124,0.002
11/08/2023,17:52:00,0.101,0.0,11.126,0.002
11/08/2023,17:53:00,0.100,0.0,11.127,0.001
11/08/2023,17:54:00,0.098,0.0,11.129,0.002
11/08/2023,17:54:58,0.097,0.0,11.13,0.001
11/08/2023,17:55:58,0.096,0.0,11.132,0.002
11/08/2023,17:57:00,0.095,0.0,11.134,0.002
11/08/2023,17:58:00,0.095,0.0,11.135,0.001
11/08/2023,17:58:59,0.094,0.0,11.137,0.002
11/08/2023,18:00:00,0.091,0.0,11.138,0.001
11/08/2023,18:01:02,0.086,0.0,11.14,0.002
11/08/2023,18:01:58,0.084,0.0,11.141,0.001
11/08/2023,18:02:57,0.081,0.0,11.143,0.002
11/08/2023,18:04:00,0.077,0.0,11.144,0.001
11/08/2023,18:05:00,0.075,0.0,11.145,0.001
11/08/2023,18:05:59,0.073,0.0,11.146,0.001
11/08/2023,18:07:00,0.070,0.0,11.148,0.002
11/08/2023,18:07:59,0.066,0.0,11.149,0.001
11/08/2023,18:09:22,0.064,0.0,11.15,0.001
11/08/2023,18:10:00,0.062,0.0,11.151,0.001
11/08/2023,18:11:00,0.061,0.0,11.152,0.001
11/08/2023,18:12:00,0.057,0.0,11.153,0.001
11/08/2023,18:13:00,0.057,0.0,11.154,0.001
11/08/2023,18:14:00,0.055,0.0,11.155,0.001
11/08/2023,18:15:00,0.054,0.0,11.156,0.001
11/08/2023,18:16:00,0.051,0.0,11.157,0.001
11/08/2023,18:17:00,0.048,0.0,11.157,0.0
11/08/2023,18:18:00,0.047,0.0,11.158,0.001
11/08/2023,18:19:00,0.045,0.0,11.159,0.001
11/08/2023,18:20:00,0.044,0.0,11.16,0.001
11/08/2023,18:21:00,0.042,0.0,11.16,0.0
11/08/2023,18:22:00,0.041,0.0,11.161,0.001
11/08/2023,18:23:00,0.040,0.0,11.162,0.001
11/08/2023,18:24:00,0.039,0.0,11.162,0.0
11/08/2023,18:25:00,0.039,0.0,11.163,0.001
11/08/2023,18:26:00,0.038,0.0,11.164,0.001
11/08/2023,18:27:00,0.038,0.0,11.164,0.0
11/08/2023,18:28:00,0.038,0.0,11.165,0.001
11/08/2023,18:29:00,0.035,0.0,11.166,0.001
11/08/2023,18:30:00,0.033,0.0,11.166,0.0
11/08/2023,18:30:58,0.032,0.0,11.167,0.001
11/08/2023,18:31:58,0.032,0.0,11.167,0.0
11/08/2023,18:33:00,0.031,0.0,11.168,0.001
11/08/2023,18:34:00,0.030,0.0,11.168,0.0
11/08/2023,18:35:00,0.028,0.0,11.169,0.001
11/08/2023,18:36:00,0.028,0.0,11.169,0.0
11/08/2023,18:36:59,0.027,0.0,11.17,0.001
11/08/2023,18:38:02,0.027,0.0,11.17,0.0
11/08/2023,18:39:00,0.026,0.0,11.171,0.001
11/08/2023,18:40:00,0.025,0.0,11.171,0.0
11/08/2023,18:40:59,0.025,0.0,11.171,0.0
11/08/2023,18:42:00,0.024,0.0,11.172,0.001
11/08/2023,18:43:00,0.023,0.0,11.172,0.0
11/08/2023,18:44:00,0.023,0.0,11.173,0.001
11/08/2023,18:45:00,0.021,0.0,11.173,0.0
11/08/2023,18:46:00,0.021,0.0,11.173,0.0
11/08/2023,18:47:00,0.020,0.0,11.174,0.001
11/08/2023,18:48:00,0.020,0.0,11.174,0.0
11/08/2023,18:49:00,0.019,0.0,11.174,0.0
11/08/2023,18:50:00,0.018,0.0,11.175,0.001
11/08/2023,18:51:00,0.017,0.0,11.175,0.0
11/08/2023,18:51:58,0.017,0.0,11.175,0.0
11/08/2023,18:52:58,0.015,0.0,11.176,0.001
11/08/2023,18:54:00,0.015,0.0,11.176,0.0
11/08/2023,18:55:00,0.016,0.0,11.176,0.0
11/08/2023,18:56:00,0.014,0.0,11.176,0.0
11/08/2023,18:57:00,0.014,0.0,11.177,0.001
11/08/2023,18:58:00,0.013,0.0,11.177,0.0
11/08/2023,18:59:00,0.012,0.0,11.177,0.0
11/08/2023,19:00:00,0.012,0.0,11.177,0.0
11/08/2023,19:01:00,0.012,0.0,11.177,0.0
11/08/2023,19:02:00,0.010,0.0,11.178,0.001
11/08/2023,19:03:00,0.011,0.0,11.178,0.0
11/08/2023,19:04:00,0.009,0.0,11.178,0.0
11/08/2023,19:04:58,0.010,0.0,11.178,0.0
11/08/2023,19:05:58,0.009,0.0,11.178,0.0
11/08/2023,19:07:00,0.008,0.0,11.178,0.0
11/08/2023,19:08:00,0.008,0.0,11.179,0.001
11/08/2023,19:09:00,0.009,0.0,11.179,0.0
11/08/2023,19:10:00,0.007,0.0,11.179,0.0
11/08/2023,19:11:00,0.008,0.0,11.179,0.0
11/08/2023,19:12:00,0.007,0.0,11.179,0.0
11/08/2023,19:13:00,0.006,0.0,11.179,0.0
11/08/2023,19:14:01,0.006,0.0,11.179,0.0
11/08/2023,19:15:00,0.006,0.0,11.179,0.0
11/08/2023,19:16:00,0.005,0.0,11.179,0.0
11/08/2023,19:17:00,0.005,0.0,11.179,0.0
11/08/2023,19:18:00,0.005,0.0,11.179,0.0
11/08/2023,19:19:00,0.004,0.0,11.179,0.0
11/08/2023,19:20:00,0.005,0.0,11.179,0.0
11/08/2023,19:21:00,0.004,0.0,11.179,0.0